Location: Boullarre
(49.1305°N, 3.0047°E)
Time: 21:48:26
(UTC+00:00)

ISS - Pass Details

Date: 29 September 2024
Orbit: 411 x 423 km, 51.6° (Epoch: 14 October)

Event Time Altitude Azimuth Distance (km) Brightness Sun altitude
Rises 19:31:18 0° 281° (W) 2,367 1.6 -20.3°
Reaches altitude 10° 19:34:31 10° 247° (WSW) 1,502 -0.3 -20.8°
Maximum altitude 19:35:47 12° 225° (SW) 1,402 -0.8 -21.0°
Enters shadow 19:36:58 10° 204° (SSW) 1,490 -0.9 -21.2°
